Regional Weather Roundup
Issued by NWS Goodland, KS

Home | Current Version | Previous Version | Graphics & Text | Print | Product List | Glossary On
Versions: 1 2 3 4 5 6 7 8 9 10 11 12 13 14 15 16 17 18 19 20 21 22 23 24 25 26 27 28 29 30 31 32 33 34 35 36 37 38 39 40 41 42 43 44 45 46 47 48 49 50
948
ASUS43 KGLD 221808
RWRGLD

GOODLAND FORECAST AREA HOURLY WEATHER ROUNDUP
NATIONAL WEATHER SERVICE GOODLAND KS
1100 AM MST THU FEB 22 2018

...OFFICIAL OBSERVATIONS...

CITY           SKY/WX    TMP DP  RH WIND       PRES   REMARKS
GOODLAND KS    FLURRIES  21  14  74 SE5       30.06F
HILL CITY KS   CLOUDY    25  22  88 E5        30.23S
IMPERIAL NEB   CLOUDY    23  14  68 SE6       30.11F
MCCOOK NEB     SNOW      22  20  92 CALM      30.16F VSB 1/2
AKRON CO       CLOUDY    21  12  68 SW7       29.98F
BURLINGTON CO  SUNNY     24  14  65 VRB7      30.03F
LIMON CO       SUNNY     24  12  60 VRB3      29.95F
$$

...UNOFFICIAL OBSERVATIONS...

CITY           SKY/WX    TMP DP  RH WIND       PRES   REMARKS
COLBY KS       CLOUDY    23  21  93 SE5       30.14R
TRIBUNE KS     SUNNY     32  19  59 S8G16     30.10
YUMA CO        FAIR      27  10  50 S7        30.03F
$$




USA.gov is the U.S. government's official web portal to all federal, state and local government web resources and services.